| time (UTC) | temp F | wind direction | speed MPH | gust MPH | rain 1hr in | rain 24hr in | rain mn in | humidity % | barometer mb |
| 20260505195311 | 81 | 269 | 6.0 | 24.0 | 0.00 | 0.00 | 0.00 | 63 | 1009.3 |
| 20260505194546 | 80 | 202 | 6.0 | 24.0 | 0.00 | 0.00 | 0.00 | 60 | 1009.2 |
| 20260505194529 | 80 | 314 | 5.0 | 22.0 | 0.00 | 0.00 | 0.00 | 61 | 1009.3 |
| 20260505193546 | 80 | 269 | 5.0 | 22.0 | 0.00 | 0.00 | 0.00 | 61 | 1009.3 |
| 20260505193047 | 80 | 330 | 6.0 | 23.0 | 0.00 | 0.00 | 0.00 | 62 | 1009.4 |
| 20260505192807 | 80 | 290 | 6.0 | 23.0 | 0.00 | 0.00 | 0.00 | 61 | 1009.5 |
| 20260505192047 | 80 | 290 | 6.0 | 20.0 | 0.00 | 0.00 | 0.00 | 62 | 1009.5 |
| 20260505191546 | 80 | 202 | 6.0 | 20.0 | 0.00 | 0.00 | 0.00 | 60 | 1009.6 |
| 20260505191046 | 80 | 269 | 7.0 | 19.0 | 0.00 | 0.00 | 0.00 | 60 | 1009.6 |
| 20260505190546 | 81 | 151 | 7.0 | 18.0 | 0.00 | 0.00 | 0.00 | 61 | 1009.6 |
| 20260505190047 | 81 | 247 | 6.0 | 18.0 | 0.00 | 0.00 | 0.00 | 61 | 1009.9 |
| 20260505185544 | 81 | 248 | 5.0 | 18.0 | 0.00 | 0.00 | 0.00 | 62 | 1009.9 |
| 20260505185038 | 81 | 119 | 5.0 | 19.0 | 0.00 | 0.00 | 0.00 | 62 | 1009.9 |
| 20260505184531 | 80 | 248 | 5.0 | 19.0 | 0.00 | 0.00 | 0.00 | 64 | 1009.9 |
| 20260505184023 | 80 | 314 | 5.0 | 18.0 | 0.00 | 0.00 | 0.00 | 66 | 1010.2 |
| 20260505183518 | 80 | 135 | 5.0 | 18.0 | 0.00 | 0.00 | 0.00 | 62 | 1010.2 |
| 20260505183453 | 80 | 231 | 5.0 | 18.0 | 0.00 | 0.00 | 0.00 | 64 | 1010.2 |
| 20260505182505 | 80 | 114 | 5.0 | 13.0 | 0.00 | 0.00 | 0.00 | 65 | 1010.3 |
| 20260505181959 | 80 | 277 | 5.0 | 14.0 | 0.00 | 0.00 | 0.00 | 68 | 1010.4 |
| 20260505181454 | 80 | 222 | 4.0 | 14.0 | 0.00 | 0.00 | 0.00 | 67 | 1010.5 |
| 20260505180953 | 80 | 147 | 5.0 | 17.0 | 0.00 | 0.00 | 0.00 | 66 | 1010.5 |
| 20260505180442 | 80 | 148 | 5.0 | 17.0 | 0.00 | 0.00 | 0.00 | 68 | 1010.6 |
| 20260505175936 | 80 | 240 | 6.0 | 17.0 | 0.00 | 0.00 | 0.00 | 66 | 1010.7 |
| 20260505175428 | 80 | 127 | 5.0 | 17.0 | 0.00 | 0.00 | 0.00 | 66 | 1010.7 |
| 20260505174921 | 80 | 72 | 4.0 | 15.0 | 0.00 | 0.00 | 0.00 | 70 | 1010.7 |
| 20260505174415 | 79 | 215 | 4.0 | 13.0 | 0.00 | 0.00 | 0.00 | 69 | 1010.8 |
| 20260505173910 | 79 | 310 | 5.0 | 15.0 | 0.00 | 0.00 | 0.00 | 68 | 1010.9 |
| 20260505173405 | 79 | 324 | 5.0 | 15.0 | 0.00 | 0.00 | 0.00 | 69 | 1010.9 |
| 20260505172858 | 79 | 135 | 4.0 | 13.0 | 0.00 | 0.00 | 0.00 | 68 | 1010.9 |
| 20260505172352 | 79 | 245 | 5.0 | 18.0 | 0.00 | 0.00 | 0.00 | 70 | 1011.0 |
| 20260505171846 | 79 | 274 | 5.0 | 18.0 | 0.00 | 0.00 | 0.00 | 67 | 1011.0 |
| 20260505171340 | 79 | 79 | 4.0 | 14.0 | 0.00 | 0.00 | 0.00 | 69 | 1011.1 |
| 20260505170834 | 78 | 201 | 5.0 | 14.0 | 0.00 | 0.00 | 0.00 | 69 | 1011.2 |
| 20260505170549 | 78 | 157 | 5.0 | 17.0 | 0.00 | 0.00 | 0.00 | 67 | 1011.2 |
| 20260505165822 | 78 | 122 | 5.0 | 17.0 | 0.00 | 0.00 | 0.00 | 71 | 1011.3 |
| 20260505165321 | 78 | 269 | 5.0 | 16.0 | 0.00 | 0.00 | 0.00 | 68 | 1011.3 |
| 20260505164810 | 78 | 221 | 4.0 | 14.0 | 0.00 | 0.00 | 0.00 | 71 | 1011.4 |
| 20260505164529 | 77 | 245 | 4.0 | 12.0 | 0.00 | 0.00 | 0.00 | 70 | 1011.4 |
| 20260505163758 | 77 | 269 | 5.0 | 16.0 | 0.00 | 0.00 | 0.00 | 69 | 1011.4 |
| 20260505163252 | 77 | 314 | 4.0 | 16.0 | 0.00 | 0.00 | 0.00 | 69 | 1011.5 |
| 20260505162750 | 77 | 1 | 4.0 | 12.0 | 0.00 | 0.00 | 0.00 | 71 | 1011.4 |
| 20260505162251 | 76 | 157 | 4.0 | 13.0 | 0.00 | 0.00 | 0.00 | 71 | 1011.4 |
| 20260505161748 | 76 | 253 | 5.0 | 13.0 | 0.00 | 0.00 | 0.00 | 70 | 1011.4 |
| 20260505161509 | 76 | 260 | 4.0 | 12.0 | 0.00 | 0.00 | 0.00 | 69 | 1011.4 |
| 20260505160744 | 76 | 223 | 4.0 | 12.0 | 0.00 | 0.00 | 0.00 | 70 | 1011.5 |
| 20260505160244 | 76 | 241 | 4.0 | 12.0 | 0.00 | 0.00 | 0.00 | 70 | 1011.5 |
| 20260505153249 | 76 | 94 | 3.0 | 8.0 | 0.00 | 0.00 | 0.00 | 73 | 1011.6 |
| 20260505152744 | 75 | 295 | 3.0 | 11.0 | 0.00 | 0.00 | 0.00 | 74 | 1011.6 |
| 20260505152506 | 75 | 46 | 3.0 | 11.0 | 0.00 | 0.00 | 0.00 | 74 | 1011.7 |
| 20260505151744 | 74 | 139 | 4.0 | 12.0 | 0.00 | 0.00 | 0.00 | 74 | 1011.8 |
| 20260505151244 | 74 | 213 | 5.0 | 13.0 | 0.00 | 0.00 | 0.00 | 72 | 1011.8 |
| 20260505150740 | 74 | 269 | 4.0 | 13.0 | 0.00 | 0.00 | 0.00 | 71 | 1011.8 |
| 20260505150240 | 74 | 283 | 4.0 | 10.0 | 0.00 | 0.00 | 0.00 | 72 | 1011.8 |
| 20260505140236 | 72 | 314 | 4.0 | 15.0 | 0.00 | 0.00 | 0.00 | 72 | 1011.7 |
| 20260505130230 | 65 | 178 | 3.0 | 10.0 | 0.00 | 0.00 | 0.00 | 76 | 1012.3 |
| 20260505124707 | 63 | 130 | 2.0 | 10.0 | 0.00 | 0.00 | 0.00 | 78 | 1012.3 |
| 20260505124201 | 63 | 206 | 2.0 | 10.0 | 0.00 | 0.00 | 0.00 | 78 | 1012.3 |
| 20260505123655 | 63 | 307 | 2.0 | 8.0 | 0.00 | 0.00 | 0.00 | 78 | 1012.3 |
| 20260505123149 | 63 | 1 | 2.0 | 8.0 | 0.00 | 0.00 | 0.00 | 79 | 1012.2 |
| 20260505122642 | 62 | 258 | 2.0 | 9.0 | 0.00 | 0.00 | 0.00 | 79 | 1012.1 |
| 20260505122137 | 62 | 262 | 3.0 | 9.0 | 0.00 | 0.00 | 0.00 | 80 | 1012.0 |
| 20260505121631 | 62 | 283 | 3.0 | 9.0 | 0.00 | 0.00 | 0.00 | 80 | 1012.0 |
| 20260505121610 | 61 | 324 | 2.0 | 9.0 | 0.00 | 0.00 | 0.00 | 81 | 1011.9 |
| 20260505120843 | 61 | 269 | 2.0 | 10.0 | 0.00 | 0.00 | 0.00 | 81 | 1011.8 |
| 20260505120113 | 60 | 299 | 2.0 | 10.0 | 0.00 | 0.00 | 0.00 | 82 | 1011.9 |
| 20260505115607 | 60 | 206 | 2.0 | 7.0 | 0.00 | 0.00 | 0.00 | 82 | 1011.9 |
| 20260505115101 | 60 | 223 | 2.0 | 7.0 | 0.00 | 0.00 | 0.00 | 83 | 1011.8 |
| 20260505114555 | 59 | 213 | 2.0 | 7.0 | 0.00 | 0.00 | 0.00 | 83 | 1011.8 |
| 20260505114048 | 59 | 210 | 2.0 | 9.0 | 0.00 | 0.00 | 0.00 | 84 | 1011.8 |
| 20260505113543 | 59 | 234 | 2.0 | 9.0 | 0.00 | 0.00 | 0.00 | 84 | 1011.8 |
| 20260505113040 | 58 | 290 | 2.0 | 7.0 | 0.00 | 0.00 | 0.00 | 84 | 1011.8 |
| 20260505112541 | 58 | 241 | 2.0 | 7.0 | 0.00 | 0.00 | 0.00 | 85 | 1011.8 |
| 20260505112041 | 58 | 145 | 2.0 | 7.0 | 0.00 | 0.00 | 0.00 | 85 | 1011.8 |
| 20260505111540 | 57 | 89 | 2.0 | 7.0 | 0.00 | 0.00 | 0.00 | 85 | 1011.7 |
| 20260505111258 | 57 | 245 | 2.0 | 6.0 | 0.00 | 0.00 | 0.00 | 85 | 1011.6 |
| 20260505110801 | 57 | 269 | 2.0 | 6.0 | 0.00 | 0.00 | 0.00 | 86 | 1011.5 |
| 20260505102037 | 55 | 46 | 1.0 | 4.0 | 0.00 | 0.00 | 0.00 | 87 | 1011.2 |
| 20260505101537 | 55 | 306 | 1.0 | 3.0 | 0.00 | 0.00 | 0.00 | 87 | 1011.1 |
| 20260505101036 | 55 | 257 | 1.0 | 5.0 | 0.00 | 0.00 | 0.00 | 87 | 1011.1 |
| 20260505100537 | 55 | 148 | 1.0 | 5.0 | 0.00 | 0.00 | 0.00 | 87 | 1011.2 |
| 20260505100037 | 55 | 223 | 1.0 | 4.0 | 0.00 | 0.00 | 0.00 | 87 | 1011.2 |
| 20260505095536 | 55 | 269 | 1.0 | 4.0 | 0.00 | 0.00 | 0.00 | 87 | 1011.2 |
| 20260505095042 | 55 | 46 | 0.0 | 2.0 | 0.00 | 0.00 | 0.00 | 87 | 1011.1 |
| 20260505094536 | 55 | 20 | 0.0 | 5.0 | 0.00 | 0.00 | 0.00 | 87 | 1011.0 |
| 20260505094037 | 55 | 117 | 0.0 | 5.0 | 0.00 | 0.00 | 0.00 | 87 | 1011.0 |
| 20260505093536 | 56 | 1 | 0.0 | 2.0 | 0.00 | 0.00 | 0.00 | 87 | 1010.9 |
| 20260505093029 | 56 | 117 | 0.0 | 2.0 | 0.00 | 0.00 | 0.00 | 87 | 1010.9 |
| 20260505092523 | 56 | 117 | 1.0 | 3.0 | 0.00 | 0.00 | 0.00 | 87 | 1010.9 |
| 20260505092023 | 56 | 161 | 1.0 | 4.0 | 0.00 | 0.00 | 0.00 | 87 | 1010.8 |
| 20260505091729 | 56 | 63 | 1.0 | 4.0 | 0.00 | 0.00 | 0.00 | 87 | 1010.8 |
| 20260505091232 | 56 | 127 | 1.0 | 4.0 | 0.00 | 0.00 | 0.00 | 87 | 1010.8 |
| 20260505090500 | 56 | 135 | 1.0 | 4.0 | 0.00 | 0.00 | 0.00 | 87 | 1010.8 |
| 20260505085954 | 56 | 46 | 1.0 | 4.0 | 0.00 | 0.00 | 0.00 | 87 | 1010.8 |
| 20260505085709 | 56 | 314 | 1.0 | 4.0 | 0.00 | 0.00 | 0.00 | 87 | 1010.7 |
| 20260505084942 | 56 | 269 | 1.0 | 4.0 | 0.00 | 0.00 | 0.00 | 87 | 1010.8 |
| 20260505084436 | 56 | 1 | 0.0 | 4.0 | 0.00 | 0.00 | 0.00 | 87 | 1010.8 |
| 20260505084151 | 56 | 46 | 1.0 | 6.0 | 0.00 | 0.00 | 0.00 | 87 | 1010.7 |
| 20260505083423 | 56 | 135 | 1.0 | 6.0 | 0.00 | 0.00 | 0.00 | 87 | 1010.7 |
| 20260505082917 | 56 | 223 | 0.0 | 2.0 | 0.00 | 0.00 | 0.00 | 87 | 1010.7 |
| 20260505082411 | 56 | 296 | 0.0 | 2.0 | 0.00 | 0.00 | 0.00 | 88 | 1010.8 |
| 20260505081905 | 56 | 269 | 1.0 | 4.0 | 0.00 | 0.00 | 0.00 | 88 | 1010.9 |
| 20260505081619 | 56 | 117 | 1.0 | 4.0 | 0.00 | 0.00 | 0.00 | 88 | 1010.9 |
| 20260505080854 | 56 | 178 | 1.0 | 4.0 | 0.00 | 0.00 | 0.00 | 88 | 1010.8 |
| 20260505080348 | 56 | 269 | 1.0 | 5.0 | 0.00 | 0.00 | 0.00 | 89 | 1010.8 |
| 20260505075842 | 56 | 257 | 2.0 | 6.0 | 0.00 | 0.00 | 0.00 | 89 | 1010.7 |
| 20260505075336 | 55 | 223 | 1.0 | 6.0 | 0.00 | 0.00 | 0.00 | 89 | 1010.8 |
| 20260505074830 | 55 | 269 | 1.0 | 4.0 | 0.00 | 0.00 | 0.00 | 89 | 1010.7 |
| 20260505074324 | 55 | 269 | 1.0 | 4.0 | 0.00 | 0.00 | 0.00 | 90 | 1010.7 |
| 20260505073818 | 55 | 145 | 1.0 | 3.0 | 0.00 | 0.00 | 0.00 | 90 | 1010.7 |
| 20260505073312 | 55 | 1 | 0.0 | 3.0 | 0.00 | 0.00 | 0.00 | 90 | 1010.7 |
| 20260505073032 | 54 | 1 | 0.0 | 1.0 | 0.00 | 0.00 | 0.00 | 89 | 1010.7 |
| 20260505072300 | 54 | 89 | 0.0 | 1.0 | 0.00 | 0.00 | 0.00 | 90 | 1010.6 |
| 20260505072240 | 54 | 63 | 0.0 | 1.0 | 0.00 | 0.00 | 0.00 | 90 | 1010.6 |
| 20260505071248 | 54 | 89 | 0.0 | 1.0 | 0.00 | 0.00 | 0.00 | 90 | 1010.7 |
| 20260505070751 | 54 | 1 | 0.0 | 1.0 | 0.00 | 0.00 | 0.00 | 90 | 1010.7 |
| 20260505070245 | 54 | 1 | 1.0 | 2.0 | 0.00 | 0.00 | 0.00 | 90 | 1010.7 |
| 20260505065751 | 54 | 117 | 1.0 | 3.0 | 0.00 | 0.00 | 0.00 | 90 | 1010.7 |
| 20260505065246 | 54 | 1 | 0.0 | 3.0 | 0.00 | 0.00 | 0.00 | 89 | 1010.8 |
| 20260505064744 | 54 | 46 | 0.0 | 2.0 | 0.00 | 0.00 | 0.00 | 89 | 1010.8 |
| 20260505064241 | 54 | 178 | 0.0 | 2.0 | 0.00 | 0.00 | 0.00 | 89 | 1010.9 |
| 20260505063740 | 54 | 1 | 0.0 | 1.0 | 0.00 | 0.00 | 0.00 | 88 | 1010.7 |
| 20260505063239 | 53 | 1 | 0.0 | 1.0 | 0.00 | 0.00 | 0.00 | 88 | 1010.9 |
| 20260505062736 | 53 | 46 | 0.0 | 1.0 | 0.00 | 0.00 | 0.00 | 87 | 1010.9 |
| 20260505062236 | 53 | 46 | 0.0 | 2.0 | 0.00 | 0.00 | 0.00 | 87 | 1010.9 |
| 20260505061741 | 53 | 28 | 0.0 | 2.0 | 0.00 | 0.00 | 0.00 | 86 | 1010.9 |
| 20260505061236 | 53 | 63 | 0.0 | 1.0 | 0.00 | 0.00 | 0.00 | 86 | 1010.8 |
| 20260505060957 | 53 | 46 | 0.0 | 1.0 | 0.00 | 0.00 | 0.00 | 86 | 1010.8 |
| 20260505060236 | 54 | 46 | 0.0 | 1.0 | 0.00 | 0.00 | 0.00 | 85 | 1010.7 |
| 20260505055740 | 54 | 314 | 0.0 | 1.0 | 0.00 | 0.00 | 0.00 | 84 | 1010.8 |
| 20260505055459 | 54 | 89 | 0.0 | 1.0 | 0.00 | 0.00 | 0.00 | 84 | 1010.8 |
| 20260505054739 | 54 | 1 | 0.0 | 1.0 | 0.00 | 0.00 | 0.00 | 84 | 1010.9 |
| 20260505054234 | 54 | 20 | 0.0 | 1.0 | 0.00 | 0.00 | 0.00 | 84 | 1010.8 |
| 20260505053733 | 54 | 46 | 0.0 | 1.0 | 0.00 | 0.00 | 0.00 | 83 | 1010.8 |
| 20260505053234 | 54 | 223 | 0.0 | 1.0 | 0.00 | 0.00 | 0.00 | 83 | 1010.9 |
| 20260505052734 | 54 | 46 | 0.0 | 2.0 | 0.00 | 0.00 | 0.00 | 84 | 1010.9 |
| 20260505052233 | 55 | 46 | 0.0 | 2.0 | 0.00 | 0.00 | 0.00 | 84 | 1010.9 |
| 20260505052001 | 55 | 1 | 0.0 | 2.0 | 0.00 | 0.00 | 0.00 | 84 | 1010.8 |
| 20260505051233 | 55 | 46 | 1.0 | 4.0 | 0.00 | 0.00 | 0.00 | 84 | 1010.8 |
| 20260505050733 | 55 | 344 | 0.0 | 4.0 | 0.00 | 0.00 | 0.00 | 83 | 1010.8 |
| 20260505050237 | 55 | 35 | 0.0 | 4.0 | 0.00 | 0.00 | 0.00 | 81 | 1010.8 |
| 20260505041639 | 57 | 314 | 0.0 | 2.0 | 0.00 | 0.00 | 0.00 | 78 | 1010.7 |
| 20260505041133 | 57 | 46 | 0.0 | 1.0 | 0.00 | 0.00 | 0.00 | 78 | 1010.7 |
| 20260505040627 | 57 | 46 | 0.0 | 1.0 | 0.00 | 0.00 | 0.00 | 78 | 1010.6 |
| 20260505040121 | 57 | 89 | 0.0 | 1.0 | 0.00 | 0.00 | 0.00 | 78 | 1010.6 |
| 20260505035622 | 57 | 46 | 1.0 | 4.0 | 0.00 | 0.00 | 0.00 | 78 | 1010.6 |
| 20260505035112 | 58 | 1 | 1.0 | 4.0 | 0.00 | 0.00 | 0.00 | 78 | 1010.5 |
| 20260505034611 | 58 | 135 | 0.0 | 3.0 | 0.00 | 0.00 | 0.00 | 77 | 1010.5 |
| 20260505034100 | 58 | 178 | 0.0 | 3.0 | 0.00 | 0.00 | 0.00 | 77 | 1010.5 |
| 20260505033555 | 58 | 79 | 0.0 | 3.0 | 0.00 | 0.00 | 0.00 | 77 | 1010.6 |
| 20260505033048 | 58 | 1 | 1.0 | 3.0 | 0.00 | 0.00 | 0.00 | 77 | 1010.6 |
| 20260505032542 | 58 | 28 | 1.0 | 3.0 | 0.00 | 0.00 | 0.00 | 77 | 1010.7 |
| 20260505032036 | 58 | 117 | 1.0 | 4.0 | 0.00 | 0.00 | 0.00 | 77 | 1010.7 |
| 20260505031530 | 58 | 314 | 1.0 | 6.0 | 0.00 | 0.00 | 0.00 | 77 | 1010.7 |
| 20260505031024 | 58 | 63 | 1.0 | 6.0 | 0.00 | 0.00 | 0.00 | 76 | 1010.8 |
| 20260505030518 | 58 | 178 | 1.0 | 4.0 | 0.00 | 0.00 | 0.00 | 76 | 1010.8 |
| 20260505030012 | 58 | 46 | 1.0 | 4.0 | 0.00 | 0.00 | 0.00 | 76 | 1010.7 |
| 20260505025505 | 58 | 174 | 1.0 | 4.0 | 0.00 | 0.00 | 0.00 | 76 | 1010.7 |
| 20260505024959 | 58 | 269 | 1.0 | 3.0 | 0.00 | 0.00 | 0.00 | 76 | 1010.7 |
| 20260505024454 | 58 | 276 | 1.0 | 3.0 | 0.00 | 0.00 | 0.00 | 76 | 1010.7 |
| 20260505024203 | 58 | 142 | 1.0 | 4.0 | 0.00 | 0.00 | 0.00 | 75 | 1010.6 |
| 20260505023442 | 58 | 117 | 1.0 | 4.0 | 0.00 | 0.00 | 0.00 | 76 | 1010.7 |
| 20260505022940 | 59 | 145 | 0.0 | 2.0 | 0.00 | 0.00 | 0.00 | 75 | 1010.7 |
| 20260505022430 | 59 | 46 | 0.0 | 1.0 | 0.00 | 0.00 | 0.00 | 75 | 1010.7 |
| 20260505022151 | 59 | 28 | 0.0 | 1.0 | 0.00 | 0.00 | 0.00 | 75 | 1010.8 |
| 20260505021418 | 59 | 135 | 0.0 | 1.0 | 0.00 | 0.00 | 0.00 | 74 | 1010.9 |
| 20260505020912 | 59 | 1 | 0.0 | 1.0 | 0.00 | 0.00 | 0.00 | 74 | 1010.9 |
| 20260505020406 | 60 | 269 | 0.0 | 2.0 | 0.00 | 0.00 | 0.00 | 73 | 1010.9 |
| 20260505020122 | 60 | 89 | 0.0 | 2.0 | 0.00 | 0.00 | 0.00 | 73 | 1010.9 |
| 20260505015353 | 60 | 46 | 0.0 | 1.0 | 0.00 | 0.00 | 0.00 | 73 | 1010.9 |
| 20260505014847 | 60 | 1 | 0.0 | 3.0 | 0.00 | 0.00 | 0.00 | 73 | 1010.9 |
| 20260505014608 | 60 | 28 | 1.0 | 3.0 | 0.00 | 0.00 | 0.00 | 72 | 1010.8 |
| 20260505014059 | 60 | 1 | 0.0 | 2.0 | 0.00 | 0.00 | 0.00 | 72 | 1010.7 |
| 20260505013330 | 61 | 46 | 0.0 | 2.0 | 0.00 | 0.00 | 0.00 | 71 | 1010.6 |
| 20260505012824 | 61 | 178 | 1.0 | 3.0 | 0.00 | 0.00 | 0.00 | 71 | 1010.6 |
| 20260505012542 | 61 | 135 | 1.0 | 3.0 | 0.00 | 0.00 | 0.00 | 71 | 1010.6 |
| 20260505011815 | 62 | 286 | 0.0 | 2.0 | 0.00 | 0.00 | 0.00 | 70 | 1010.5 |
| 20260505011316 | 62 | 178 | 0.0 | 2.0 | 0.00 | 0.00 | 0.00 | 70 | 1010.5 |
| 20260505010816 | 62 | 46 | 0.0 | 3.0 | 0.00 | 0.00 | 0.00 | 70 | 1010.4 |
| 20260505010315 | 62 | 135 | 1.0 | 3.0 | 0.00 | 0.00 | 0.00 | 70 | 1010.4 |
| 20260505005816 | 62 | 141 | 1.0 | 3.0 | 0.00 | 0.00 | 0.00 | 69 | 1010.4 |
| 20260505005315 | 63 | 56 | 1.0 | 4.0 | 0.00 | 0.00 | 0.00 | 69 | 1010.3 |
| 20260505004816 | 63 | 223 | 1.0 | 4.0 | 0.00 | 0.00 | 0.00 | 68 | 1010.3 |
| 20260505004315 | 63 | 28 | 0.0 | 2.0 | 0.00 | 0.00 | 0.00 | 68 | 1010.2 |
| 20260505004254 | 64 | 269 | 1.0 | 5.0 | 0.00 | 0.00 | 0.00 | 68 | 1010.2 |
| 20260505003803 | 64 | 269 | 1.0 | 5.0 | 0.00 | 0.00 | 0.00 | 68 | 1010.2 |
| 20260505003038 | 65 | 314 | 1.0 | 4.0 | 0.00 | 0.00 | 0.00 | 67 | 1010.2 |
| 20260505002539 | 65 | 72 | 1.0 | 3.0 | 0.00 | 0.00 | 0.00 | 67 | 1010.2 |
| 20260505001814 | 65 | 1 | 1.0 | 3.0 | 0.00 | 0.00 | 0.00 | 67 | 1009.9 |
| 20260505001314 | 66 | 314 | 0.0 | 2.0 | 0.00 | 0.00 | 0.00 | 66 | 1009.9 |
| 20260505001037 | 66 | 135 | 0.0 | 2.0 | 0.00 | 0.00 | 0.00 | 65 | 1009.9 |
| 20260505000312 | 67 | 314 | 1.0 | 2.0 | 0.00 | 0.00 | 0.00 | 65 | 1009.9 |
| 20260504235811 | 67 | 213 | 1.0 | 3.0 | 0.00 | 0.00 | 0.00 | 64 | 1009.9 |
| 20260504235536 | 67 | 269 | 1.0 | 3.0 | 0.00 | 0.00 | 0.00 | 64 | 1009.8 |
| 20260504234809 | 68 | 135 | 2.0 | 11.0 | 0.00 | 0.00 | 0.00 | 63 | 1009.8 |
| 20260504234310 | 68 | 170 | 2.0 | 11.0 | 0.00 | 0.00 | 0.00 | 63 | 1009.9 |
| 20260504233809 | 68 | 292 | 2.0 | 5.0 | 0.00 | 0.00 | 0.00 | 62 | 1009.9 |
| 20260504233309 | 69 | 234 | 1.0 | 5.0 | 0.00 | 0.00 | 0.00 | 62 | 1009.9 |
| 20260504232809 | 69 | 178 | 2.0 | 6.0 | 0.00 | 0.00 | 0.00 | 62 | 1009.9 |
| 20260504232303 | 69 | 46 | 2.0 | 8.0 | 0.00 | 0.00 | 0.00 | 61 | 1009.9 |
| 20260504231754 | 70 | 245 | 2.0 | 8.0 | 0.00 | 0.00 | 0.00 | 61 | 1009.9 |
| 20260504231253 | 70 | 250 | 2.0 | 8.0 | 0.00 | 0.00 | 0.00 | 60 | 1009.9 |
| 20260504230743 | 70 | 258 | 2.0 | 12.0 | 0.00 | 0.00 | 0.00 | 60 | 1009.9 |
| 20260504230237 | 71 | 269 | 2.0 | 12.0 | 0.00 | 0.00 | 0.00 | 59 | 1009.9 |
| 20260504225730 | 71 | 142 | 3.0 | 10.0 | 0.00 | 0.00 | 0.00 | 58 | 1009.9 |
| 20260504225451 | 71 | 231 | 3.0 | 10.0 | 0.00 | 0.00 | 0.00 | 59 | 1009.9 |
| 20260504224719 | 71 | 100 | 3.0 | 10.0 | 0.00 | 0.00 | 0.00 | 59 | 1009.9 |
| 20260504224213 | 71 | 1 | 3.0 | 10.0 | 0.00 | 0.00 | 0.00 | 60 | 1009.9 |
| 20260504223707 | 71 | 146 | 3.0 | 10.0 | 0.00 | 0.00 | 0.00 | 60 | 1009.9 |
| 20260504223201 | 71 | 28 | 2.0 | 10.0 | 0.00 | 0.00 | 0.00 | 59 | 1009.9 |
| 20260504222654 | 71 | 245 | 3.0 | 16.0 | 0.00 | 0.00 | 0.00 | 60 | 1009.9 |
| 20260504222148 | 71 | 241 | 3.0 | 16.0 | 0.00 | 0.00 | 0.00 | 58 | 1009.9 |
| 20260504221643 | 72 | 253 | 3.0 | 11.0 | 0.00 | 0.00 | 0.00 | 59 | 1009.9 |
| 20260504221355 | 72 | 237 | 4.0 | 11.0 | 0.00 | 0.00 | 0.00 | 57 | 1010.0 |
| 20260504220631 | 72 | 227 | 4.0 | 11.0 | 0.00 | 0.00 | 0.00 | 58 | 1010.0 |
| 20260504220125 | 72 | 152 | 4.0 | 15.0 | 0.00 | 0.00 | 0.00 | 57 | 1009.9 |
| 20260504215618 | 72 | 243 | 4.0 | 15.0 | 0.00 | 0.00 | 0.00 | 58 | 1009.9 |
| 20260504215113 | 73 | 202 | 3.0 | 12.0 | 0.00 | 0.00 | 0.00 | 57 | 1010.0 |
| 20260504214607 | 73 | 259 | 4.0 | 13.0 | 0.00 | 0.00 | 0.00 | 57 | 1010.2 |
| 20260504214102 | 73 | 269 | 4.0 | 13.0 | 0.00 | 0.00 | 0.00 | 58 | 1010.2 |
| 20260504213601 | 73 | 188 | 3.0 | 12.0 | 0.00 | 0.00 | 0.00 | 57 | 1010.0 |
| 20260504213059 | 73 | 269 | 4.0 | 18.0 | 0.00 | 0.00 | 0.00 | 56 | 1010.2 |
| 20260504212559 | 73 | 274 | 5.0 | 18.0 | 0.00 | 0.00 | 0.00 | 58 | 1010.2 |
| 20260504212320 | 73 | 228 | 4.0 | 18.0 | 0.00 | 0.00 | 0.00 | 55 | 1010.0 |
| 20260504211559 | 73 | 241 | 4.0 | 18.0 | 0.00 | 0.00 | 0.00 | 56 | 1010.2 |
| 20260504211059 | 73 | 178 | 4.0 | 16.0 | 0.00 | 0.00 | 0.00 | 57 | 1010.2 |
| 20260504210559 | 73 | 245 | 5.0 | 14.0 | 0.00 | 0.00 | 0.00 | 58 | 1010.2 |
| 20260504210059 | 73 | 220 | 5.0 | 13.0 | 0.00 | 0.00 | 0.00 | 58 | 1010.2 |
| 20260504205559 | 73 | 269 | 5.0 | 14.0 | 0.00 | 0.00 | 0.00 | 57 | 1010.3 |
| 20260504205059 | 73 | 272 | 4.0 | 14.0 | 0.00 | 0.00 | 0.00 | 57 | 1010.2 |
| 20260504204557 | 73 | 187 | 4.0 | 13.0 | 0.00 | 0.00 | 0.00 | 57 | 1010.0 |
| 20260504204057 | 73 | 241 | 4.0 | 14.0 | 0.00 | 0.00 | 0.00 | 59 | 1010.2 |
| 20260504203601 | 73 | 274 | 5.0 | 14.0 | 0.00 | 0.00 | 0.00 | 57 | 1010.0 |
| 20260504203058 | 73 | 223 | 4.0 | 13.0 | 0.00 | 0.00 | 0.00 | 55 | 1010.2 |
| 20260504202557 | 73 | 276 | 4.0 | 13.0 | 0.00 | 0.00 | 0.00 | 57 | 1010.4 |
| 20260504202057 | 73 | 245 | 4.0 | 15.0 | 0.00 | 0.00 | 0.00 | 55 | 1010.3 |
| 20260504202040 | 73 | 28 | 5.0 | 16.0 | 0.00 | 0.00 | 0.00 | 56 | 1010.5 |
| 20260504201057 | 73 | 241 | 5.0 | 16.0 | 0.00 | 0.00 | 0.00 | 58 | 1010.6 |
| 20260504200822 | 73 | 248 | 4.0 | 10.0 | 0.00 | 0.00 | 0.00 | 59 | 1010.7 |
| 20260504200318 | 73 | 245 | 4.0 | 11.0 | 0.00 | 0.00 | 0.00 | 59 | 1010.6 |
| 20260504195810 | 72 | 89 | 5.0 | 16.0 | 0.00 | 0.00 | 0.00 | 59 | 1010.8 |